PWSat 2 (43814 NORAD) Tracking and Keplerian Element Data

This shows tracking and keplerian element data for the satellite.

Feedback or suggestion? Click here.




ElementValue
Catalog43814
NamePWSat 2
Epoch Orbit498
Epoch Day10.16835701
Epoch Year2019
RAAN83.9437
Inclination97.7663
Eccentricity0.0012931
Argument of Perigee148.3285
Mean Anonmoly211.8654
Mean Motion14.95173296
Decay Rate0.0001326
L11 43814U 18099BJ 19010.16835701 .00013260 00000-0 12090-2 0 9995
L22 43814 97.7663 83.9437 0012931 148.3285 211.8654 14.95173296 4986

Live tracking and technical data element details for PWSat 2 (NORAD 43814). PWSat 2 can be tracked NOW for your location showing map with azimuth and elevation plus other details from your city location.

Track the satellite on the map from your city or location and see movement details for azimuth, elevation, latitude, longitude, range, height, and movement on the map or in text.







IsCatalogInMostPopularTable: catalog: 43814, numindb: 98
Update: records affected: 1



GetName: 43814 PWSat 2

Hit Count: updated at: Thu, 17 Jan 2019 14:38:22 GMT